Weather History for KMCW - October, 2012

Change the Weather History Date:

Saturday, October 6, 2012

  Actual Average Record
Temperature  
Mean Temperature 36 °F 52 °F  
Max Temperature 43 °F 65 °F 94 °F (1963)
Min Temperature 29 °F 40 °F 15 °F (1935)
Degree Days  
Heating Degree Days 29 13  
Month to date heating degree days 91 74  
Since 1 July heating degree days 283 287  
Cooling Degree Days 0 0  
Month to date cooling degree days 0 2  
Year to date cooling degree days 899 612  
Moisture  
Dew Point 24 °F    
Average Humidity 61    
Maximum Humidity 78    
Minimum Humidity 44    
Precipitation  
Precipitation 0.00 in 0.09 in 1.40 in (1903)
Month to date precipitation 0.00 0.57  
Year to date precipitation 16.16 30.20  
Snow  
Snow 0.00 in 0.00 in 0.00 in (2002)
Month to date snowfall 0.0 0.0  
Since 1 July snowfall 0.0 0.0  
Since 1 September snowfall 0.0 0.0  
Snow Depth 0.00 in    
Sea Level Pressure  
Sea Level Pressure 30.26 in    
Wind  
Wind Speed 12 mph (NW)    
Max Wind Speed 25 mph    
Max Gust Speed 30 mph    
Visibility 10 miles    
Events      
T = Trace of Precipitation, MM = Missing Value Source: NWS Daily Summary

Daily Weather History Graph

Daily Weather History Graph

Search for Another Location

Airport or City:

Trip Planner

Search our weather history database for the weather conditions in past years. The results will help you decide how hot, cold, wet, or windy it might be!

Date:

Astronomy

Oct. 06, 2012 Rise Set
Actual Time 7:17 AM CDT 6:44 PM CDT
Civil Twilight 6:48 AM CDT 7:13 PM CDT
Nautical Twilight 6:15 AM CDT 7:46 PM CDT
Astronomical Twilight 5:42 AM CDT 8:19 PM CDT
Moon 10:53 PM CDT (10/6) 1:19 PM CDT (10/6)
Length of Visible Light 12h 24m
Length of Day
11h 27m
Waning Gibbous, 65% of the Moon is Illuminated
Oct 6
Waning Gibbous
Oct 8
Last Quarter
Oct 15
New
Oct 21
First Quarter
Oct 29
Full

Hourly Weather History & Observations

Time (CDT) Temp. Windchill Dew Point Humidity Pressure Visibility Wind Dir Wind Speed Gust Speed Precip Events Conditions
12:53 AM 33.1 °F 24.4 °F 21.0 °F 61% 30.21 in 10.0 mi WNW 11.5 mph - N/A   Scattered Clouds
1:53 AM 37.9 °F 29.2 °F 21.9 °F 53% 30.20 in 10.0 mi NW 15.0 mph - N/A   Overcast
2:53 AM 36.0 °F 25.3 °F 21.9 °F 57% 30.20 in 10.0 mi NW 19.6 mph - N/A   Scattered Clouds
3:53 AM 34.0 °F 23.8 °F 24.1 °F 67% 30.21 in 10.0 mi NW 16.1 mph - N/A   Clear
4:53 AM 30.9 °F 19.8 °F 24.1 °F 76% 30.22 in 10.0 mi NW 16.1 mph - N/A   Clear
5:51 AM 30.2 °F 19.8 °F 24.8 °F 80% 30.21 in 10.0 mi NW 13.8 mph - N/A   Mostly Cloudy
5:53 AM 30.9 °F 20.7 °F 24.1 °F 76% 30.23 in 10.0 mi NW 13.8 mph - N/A   Mostly Cloudy
6:53 AM 33.1 °F 23.4 °F 25.0 °F 72% 30.24 in 10.0 mi NW 13.8 mph - N/A   Overcast
7:53 AM 34.0 °F 24.6 °F 25.0 °F 70% 30.26 in 10.0 mi NW 13.8 mph - N/A   Overcast
8:44 AM 35.6 °F 25.5 °F 26.6 °F 70% 30.25 in 10.0 mi NW 17.3 mph 24.2 mph N/A   Overcast
8:53 AM 36.0 °F 25.6 °F 26.1 °F 67% 30.28 in 10.0 mi NW 18.4 mph - N/A   Overcast
9:36 AM 37.4 °F 27.5 °F 26.6 °F 65% 30.27 in 10.0 mi NW 18.4 mph - N/A   Overcast
9:43 AM 37.4 °F 27.8 °F 26.6 °F 65% 30.27 in 10.0 mi NW 17.3 mph 25.3 mph N/A   Overcast
9:53 AM 37.0 °F 27.4 °F 26.1 °F 65% 30.30 in 10.0 mi NW 17.3 mph - N/A   Overcast
10:02 AM 37.4 °F 28.2 °F 26.6 °F 65% 30.28 in 10.0 mi NW 16.1 mph - N/A   Overcast
10:53 AM 37.9 °F 28.5 °F 25.0 °F 60% 30.30 in 10.0 mi NNW 17.3 mph - N/A   Overcast
11:22 AM 39.2 °F 29.6 °F 26.6 °F 61% 30.28 in 10.0 mi NNW 19.6 mph - N/A   Overcast
11:53 AM 39.9 °F 32.5 °F 25.0 °F 55% 30.30 in 10.0 mi NW 12.7 mph - N/A   Overcast
12:25 PM 39.2 °F 30.5 °F 26.6 °F 61% 30.28 in 10.0 mi North 16.1 mph - N/A   Overcast
12:53 PM 39.9 °F 32.1 °F 26.1 °F 58% 30.30 in 10.0 mi North 13.8 mph - N/A   Overcast
1:53 PM 41.0 °F 33.5 °F 24.1 °F 51% 30.27 in 10.0 mi NW 13.8 mph - N/A   Overcast
2:53 PM 42.1 °F 34.2 °F 23.0 °F 47% 30.26 in 10.0 mi North 16.1 mph - N/A   Overcast
3:53 PM 41.0 °F 32.8 °F 23.0 °F 49% 30.27 in 10.0 mi NNW 16.1 mph 23.0 mph N/A   Overcast
4:53 PM 39.9 °F 33.4 °F 21.9 °F 49% 30.27 in 10.0 mi WNW 10.4 mph - N/A   Overcast
5:53 PM 41.0 °F 36.4 °F 21.0 °F 45% 30.27 in 10.0 mi NNW 6.9 mph - N/A   Overcast
6:53 PM 39.9 °F 35.1 °F 19.9 °F 45% 30.27 in 10.0 mi NNW 6.9 mph - N/A   Overcast
7:53 PM 39.0 °F 34.8 °F 19.9 °F 46% 30.28 in 10.0 mi NW 5.8 mph - N/A   Overcast
8:53 PM 37.0 °F 32.4 °F 19.9 °F 50% 30.29 in 10.0 mi North 5.8 mph - N/A   Overcast
9:53 PM 36.0 °F 31.1 °F 19.9 °F 52% 30.29 in 10.0 mi NW 5.8 mph - N/A   Overcast
10:53 PM 28.9 °F 22.8 °F 18.0 °F 64% 30.30 in 10.0 mi WNW 5.8 mph - N/A   Clear
11:53 PM 32.0 °F 28.7 °F 19.9 °F 61% 30.28 in 10.0 mi West 3.5 mph - N/A   Overcast